When you browse on this site, cookies collect data to enhance your experience and personalize the content and advertising you see.
Visit our Privacy Policy to learn more. By continuing to use the site, you agree to this use of cookies and data.
  • In Latvia
  • List of Countries
  • For 7 days
  • Water Temperature
  • Weather Map
  • Weather Widgets
  • user-avatar
    Login

    Hourly Weather Satif

    Today, 29 May, Friday

    Time Temperature Precipitation Wind Pressure Humidity
    00:00 +17°C° 0 mm 3 mps 674 mmHg 54%
    01:00 +17°C° 0.3 mm 3 mps 673 mmHg 57%
    02:00 +17°C° 0.3 mm 3 mps 673 mmHg 60%
    03:00 +16°C° 0.3 mm 3 mps 673 mmHg 63%
    04:00 +17°C° 0.9 mm 3 mps 673 mmHg 63%
    05:00 +17°C° 0.9 mm 3 mps 673 mmHg 64%
    06:00 +17°C° 0 mm 2 mps 673 mmHg 68%
    07:00 +18°C° 0.7 mm 2 mps 673 mmHg 63%
    08:00 +20°C° 0.7 mm 3 mps 674 mmHg 59%
    09:00 +21°C° 0.7 mm 3 mps 674 mmHg 55%
    10:00 +22°C° 0.7 mm 4 mps 674 mmHg 52%
    11:00 +23°C° 0.7 mm 4 mps 674 mmHg 49%
    12:00 +25°C° 0 mm 5 mps 673 mmHg 46%
    13:00 +25°C° 0.6 mm 5 mps 673 mmHg 46%
    14:00 +25°C° 0.6 mm 5 mps 673 mmHg 46%
    15:00 +25°C° 0.6 mm 5 mps 672 mmHg 46%
    16:00 +22°C° 1.8 mm 4 mps 672 mmHg 53%
    17:00 +20°C° 1.8 mm 3 mps 671 mmHg 61%
    18:00 +19°C° 1.8 mm 3 mps 670 mmHg 69%
    19:00 +18°C° 0.5 mm 2 mps 671 mmHg 72%
    20:00 +19°C° 0.5 mm 1 mps 671 mmHg 75%
    21:00 +18°C° 0.5 mm 1 mps 671 mmHg 78%
    22:00 +18°C° 0.2 mm 1 mps 671 mmHg 78%
    23:00 +18°C° 0.2 mm 1 mps 670 mmHg 78%

    Tomorrow, 30 May, Saturday

    Time Temperature Precipitation Wind Pressure Humidity
    00:00 +16°C° 0.2 mm 1 mps 670 mmHg 79%
    01:00 +16°C° 0 mm 1 mps 670 mmHg 81%
    02:00 +15°C° 0 mm 1 mps 670 mmHg 83%
    03:00 +15°C° 0 mm 1 mps 669 mmHg 85%
    04:00 +15°C° 0 mm 1 mps 670 mmHg 85%
    05:00 +15°C° 0 mm 2 mps 670 mmHg 85%
    06:00 +15°C° 0 mm 2 mps 670 mmHg 85%
    07:00 +16°C° 0 mm 2 mps 670 mmHg 78%
    08:00 +18°C° 0 mm 2 mps 671 mmHg 71%
    09:00 +19°C° 0 mm 2 mps 671 mmHg 64%
    10:00 +20°C° 0 mm 3 mps 672 mmHg 56%
    11:00 +21°C° 0 mm 3 mps 672 mmHg 49%
    12:00 +22°C° 0 mm 4 mps 672 mmHg 42%
    13:00 +22°C° 0 mm 4 mps 672 mmHg 41%
    14:00 +23°C° 0 mm 4 mps 672 mmHg 40%
    15:00 +23°C° 0 mm 4 mps 672 mmHg 39%
    16:00 +22°C° 0 mm 4 mps 671 mmHg 45%
    17:00 +20°C° 0 mm 4 mps 671 mmHg 51%
    18:00 +19°C° 0 mm 4 mps 671 mmHg 57%
    19:00 +18°C° 0 mm 4 mps 671 mmHg 62%
    20:00 +17°C° 0 mm 3 mps 671 mmHg 66%
    21:00 +16°C° 0 mm 2 mps 671 mmHg 70%
    22:00 +15°C° 0 mm 2 mps 671 mmHg 71%
    23:00 +15°C° 0 mm 1 mps 671 mmHg 71%

    Day after tomorrow, 31 May, Sunday

    Time Temperature Precipitation Wind Pressure Humidity
    00:00 +15°C° 0 mm 1 mps 671 mmHg 71%
    01:00 +14°C° 0 mm 1 mps 671 mmHg 72%
    02:00 +14°C° 0 mm 1 mps 670 mmHg 72%
    03:00 +12°C° 0 mm 0 mps 670 mmHg 73%
    04:00 +14°C° 0 mm 1 mps 670 mmHg 68%
    05:00 +15°C° 0 mm 1 mps 671 mmHg 64%
    06:00 +16°C° 0 mm 1 mps 671 mmHg 59%
    07:00 +19°C° 0 mm 1 mps 671 mmHg 53%
    08:00 +20°C° 0 mm 1 mps 672 mmHg 47%
    09:00 +22°C° 0 mm 1 mps 673 mmHg 40%
    10:00 +24°C° 0 mm 2 mps 673 mmHg 37%
    11:00 +25°C° 0 mm 3 mps 673 mmHg 34%
    12:00 +26°C° 0 mm 4 mps 673 mmHg 30%
    13:00 +27°C° 0 mm 4 mps 673 mmHg 32%
    14:00 +27°C° 0 mm 5 mps 673 mmHg 33%
    15:00 +27°C° 0 mm 5 mps 673 mmHg 34%
    16:00 +26°C° 0 mm 5 mps 672 mmHg 38%
    17:00 +26°C° 0 mm 4 mps 672 mmHg 42%
    18:00 +25°C° 0 mm 4 mps 671 mmHg 46%
    19:00 +24°C° 0.1 mm 3 mps 671 mmHg 50%
    20:00 +22°C° 0.1 mm 3 mps 671 mmHg 53%
    21:00 +21°C° 0.1 mm 2 mps 671 mmHg 56%
    22:00 +20°C° 0.4 mm 2 mps 671 mmHg 60%
    23:00 +20°C° 0.4 mm 1 mps 670 mmHg 63%

    1 June, Monday

    Time Temperature Precipitation Wind Pressure Humidity
    00:00 +20°C° 0.4 mm 1 mps 670 mmHg 66%
    01:00 +19°C° 0.1 mm 1 mps 670 mmHg 68%
    02:00 +19°C° 0.1 mm 1 mps 670 mmHg 69%
    03:00 +19°C° 0.1 mm 1 mps 669 mmHg 70%
    04:00 +18°C° 0 mm 2 mps 670 mmHg 67%
    05:00 +19°C° 0 mm 2 mps 670 mmHg 64%
    06:00 +20°C° 0 mm 2 mps 671 mmHg 61%
    07:00 +21°C° 0.1 mm 3 mps 671 mmHg 57%
    08:00 +22°C° 0.1 mm 3 mps 672 mmHg 52%
    09:00 +25°C° 0.1 mm 4 mps 672 mmHg 47%
    10:00 +26°C° 0 mm 4 mps 672 mmHg 46%
    11:00 +26°C° 0 mm 4 mps 672 mmHg 44%
    12:00 +27°C° 0 mm 4 mps 672 mmHg 43%
    13:00 +27°C° 0.1 mm 4 mps 672 mmHg 43%
    14:00 +27°C° 0.1 mm 5 mps 672 mmHg 44%
    15:00 +27°C° 0.1 mm 5 mps 672 mmHg 44%
    16:00 +26°C° 0 mm 5 mps 672 mmHg 48%
    17:00 +23°C° 0 mm 4 mps 672 mmHg 53%
    18:00 +22°C° 0 mm 4 mps 671 mmHg 57%
    19:00 +20°C° 0 mm 3 mps 672 mmHg 60%
    20:00 +19°C° 0 mm 3 mps 672 mmHg 64%
    21:00 +18°C° 0 mm 2 mps 672 mmHg 67%
    22:00 +17°C° 0 mm 2 mps 672 mmHg 66%
    23:00 +18°C° 0 mm 1 mps 672 mmHg 65%

    2 June, Tuesday

    Time Temperature Precipitation Wind Pressure Humidity
    00:00 +16°C° 0 mm 1 mps 671 mmHg 63%
    01:00 +16°C° 0 mm 1 mps 671 mmHg 64%
    02:00 +16°C° 0 mm 1 mps 671 mmHg 64%
    03:00 +14°C° 0 mm 0 mps 671 mmHg 64%
    04:00 +15°C° 0 mm 0 mps 671 mmHg 58%
    05:00 +16°C° 0 mm 0 mps 672 mmHg 52%
    06:00 +17°C° 0 mm 0 mps 672 mmHg 46%
    07:00 +20°C° 0 mm 1 mps 673 mmHg 43%
    08:00 +21°C° 0 mm 1 mps 673 mmHg 41%
    09:00 +23°C° 0 mm 2 mps 674 mmHg 38%
    10:00 +24°C° 0 mm 2 mps 674 mmHg 36%
    11:00 +25°C° 0 mm 3 mps 674 mmHg 35%
    12:00 +26°C° 0 mm 3 mps 674 mmHg 34%
    13:00 +26°C° 0 mm 3 mps 674 mmHg 33%
    14:00 +26°C° 0 mm 4 mps 673 mmHg 33%
    15:00 +26°C° 0 mm 4 mps 673 mmHg 32%
    16:00 +26°C° 0 mm 4 mps 673 mmHg 35%
    17:00 +25°C° 0 mm 3 mps 672 mmHg 37%
    18:00 +24°C° 0 mm 3 mps 672 mmHg 40%
    19:00 +23°C° 0 mm 2 mps 672 mmHg 45%
    20:00 +21°C° 0 mm 2 mps 672 mmHg 51%
    21:00 +20°C° 0 mm 1 mps 672 mmHg 56%
    22:00 +20°C° 0 mm 1 mps 671 mmHg 56%
    23:00 +20°C° 0 mm 1 mps 671 mmHg 57%

    3 June, Wednesday

    Time Temperature Precipitation Wind Pressure Humidity
    00:00 +19°C° 0 mm 1 mps 670 mmHg 57%
    01:00 +19°C° 0 mm 1 mps 670 mmHg 56%
    02:00 +19°C° 0 mm 1 mps 669 mmHg 55%
    03:00 +19°C° 0 mm 1 mps 669 mmHg 54%
    04:00 +20°C° 0 mm 1 mps 669 mmHg 51%
    05:00 +20°C° 0 mm 2 mps 670 mmHg 47%
    06:00 +21°C° 0 mm 2 mps 670 mmHg 43%
    07:00 +22°C° 0 mm 3 mps 670 mmHg 41%
    08:00 +23°C° 0 mm 4 mps 670 mmHg 38%
    09:00 +25°C° 0 mm 5 mps 671 mmHg 35%
    10:00 +26°C° 0 mm 6 mps 671 mmHg 34%
    11:00 +27°C° 0 mm 6 mps 671 mmHg 33%
    12:00 +28°C° 0 mm 7 mps 671 mmHg 32%
    13:00 +29°C° 0 mm 6 mps 670 mmHg 32%
    14:00 +29°C° 0 mm 6 mps 670 mmHg 31%
    15:00 +29°C° 0 mm 5 mps 670 mmHg 31%
    16:00 +28°C° 0 mm 5 mps 669 mmHg 34%
    17:00 +27°C° 0 mm 5 mps 669 mmHg 36%
    18:00 +26°C° 0 mm 5 mps 669 mmHg 38%
    19:00 +24°C° 0.1 mm 6 mps 669 mmHg 41%
    20:00 +23°C° 0.1 mm 7 mps 669 mmHg 43%
    21:00 +22°C° 0.1 mm 8 mps 669 mmHg 45%
    22:00 +21°C° 0 mm 7 mps 669 mmHg 51%
    23:00 +20°C° 0 mm 5 mps 668 mmHg 57%
    Show more